CW5255 Weather Reports


time (UTC)temp
C
wind
direction
speed
KPH
gust
KPH
rain 1hr
cm
rain 24hr
cm
rain mn
cm
humidity
%
barometer
mb
20260507185328 18 311 4.8 17.7 0.00 0.00 0.00 40 1009.3
20260507184328 19 344 8.0 17.7 0.00 0.00 0.00 41 1009.6
20260507183328 19 291 16.1 19.3 0.00 0.00 0.00 42 1009.6
20260507182828 18 205 1.6 17.7 0.00 0.00 0.00 42 1009.6
20260507182328 18 205 12.9 17.7 0.00 0.00 0.00 42 1009.8
20260507181828 18 291 3.2 19.3 0.00 0.00 0.00 41 1009.7
20260507181328 18 36 8.0 19.3 0.00 0.00 0.00 43 1009.8
20260507180828 18 313 3.2 17.7 0.00 0.00 0.00 43 1009.9
20260507180328 18 128 8.0 17.7 0.00 0.00 0.00 43 1009.9
20260507175828 18 309 12.9 29.0 0.00 0.00 0.00 44 1010.0
20260507174828 18 95 20.9 22.5 0.00 0.00 0.00 43 1010.3
20260507174328 18 113 4.8 22.5 0.00 0.00 0.00 43 1010.4
20260507173828 18 16 3.2 19.3 0.00 0.00 0.00 45 1010.5
20260507173328 18 301 14.5 20.9 0.00 0.00 0.00 44 1010.6
20260507171828 17 10 12.9 17.7 0.00 0.00 0.00 44 1010.8
20260507171328 17 330 3.2 19.3 0.00 0.00 0.00 46 1010.8
20260507170828 17 115 0.0 19.3 0.00 0.00 0.00 46 1010.9
20260507170328 17 219 3.2 16.1 0.00 0.00 0.00 46 1010.8
20260507165858 17 301 1.6 17.7 0.00 0.00 0.00 45 1011.0
20260507165328 17 249 8.0 20.9 0.00 0.00 0.00 47 1011.1
20260507164828 17 51 4.8 20.9 0.00 0.00 0.00 47 1011.2
20260507163828 16 355 3.2 16.1 0.00 0.00 0.00 50 1011.4
20260507163328 16 295 6.4 16.1 0.00 0.00 0.00 47 1011.3
20260507162358 16 215 3.2 14.5 0.00 0.00 0.00 48 1011.4
20260507161828 16 79 6.4 17.7 0.00 0.00 0.00 45 1011.4
20260507161327 16 5 4.8 17.7 0.00 0.00 0.00 45 1011.6
20260507160328 16 200 3.2 22.5 0.00 0.00 0.00 49 1011.9
20260507155827 16 315 16.1 22.5 0.00 0.00 0.00 48 1011.8
20260507155328 16 5 8.0 20.9 0.00 0.00 0.00 46 1012.1
20260507154827 16 59 6.4 14.5 0.00 0.00 0.00 47 1012.2
20260507154327 15 52 11.3 16.1 0.00 0.00 0.00 48 1012.2
20260507153827 15 58 4.8 16.1 0.00 0.00 0.00 48 1012.1
20260507153328 15 40 6.4 14.5 0.00 0.00 0.00 48 1012.1
20260507152827 15 264 4.8 14.5 0.00 0.00 0.00 47 1012.0
20260507152327 15 47 3.2 16.1 0.00 0.00 0.00 48 1012.2
20260507151827 15 80 4.8 16.1 0.00 0.00 0.00 47 1012.2
20260507151327 14 102 4.8 17.7 0.00 0.00 0.00 52 1012.0
20260507150327 14 40 9.7 20.9 0.00 0.00 0.00 51 1012.3
20260507145827 14 46 4.8 17.7 0.00 0.00 0.00 50 1012.3
20260507145327 14 43 3.2 17.7 0.00 0.00 0.00 53 1012.6
20260507144827 14 79 4.8 14.5 0.00 0.00 0.00 50 1012.7
20260507144327 14 52 11.3 14.5 0.00 0.00 0.00 54 1012.9
20260507143827 13 76 3.2 12.9 0.00 0.00 0.00 55 1012.8
20260507143327 13 22 9.7 12.9 0.00 0.00 0.00 53 1013.0
20260507142827 13 347 4.8 16.1 0.00 0.00 0.00 55 1013.1
20260507142327 13 51 9.7 16.1 0.00 0.00 0.00 54 1013.0
20260507141827 13 22 12.9 14.5 0.00 0.00 0.00 55 1013.2
20260507141327 13 272 6.4 17.7 0.00 0.00 0.00 57 1013.2
20260507140327 12 360 6.4 9.7 0.00 0.00 0.00 59 1013.3
20260507135827 12 51 1.6 16.1 0.00 0.00 0.00 61 1013.4
20260507135327 12 68 8.0 16.1 0.00 0.00 0.00 58 1013.5
20260507134827 12 49 6.4 16.1 0.00 0.00 0.00 60 1013.6
20260507134327 12 49 6.4 16.1 0.00 0.03 0.00 59 1013.6
20260507133827 12 321 8.0 12.9 0.00 0.03 0.00 61 1013.6
20260507133327 12 78 3.2 11.3 0.00 0.03 0.00 62 1013.8
20260507132827 12 213 6.4 14.5 0.00 0.03 0.00 60 1013.8
20260507131827 11 65 4.8 16.1 0.00 0.03 0.00 61 1013.7
20260507131327 11 297 4.8 9.7 0.00 0.03 0.00 63 1013.8
20260507130827 11 10 1.6 12.9 0.00 0.03 0.00 62 1013.7
20260507130327 11 321 3.2 14.5 0.00 0.03 0.00 64 1013.7
20260507125827 11 24 6.4 14.5 0.00 0.03 0.00 64 1013.8
20260507125327 11 24 9.7 12.9 0.00 0.03 0.00 63 1013.9
20260507124827 11 43 11.3 11.3 0.00 0.05 0.00 66 1013.9
20260507123827 11 71 8.0 8.0 0.00 0.05 0.00 65 1013.8
20260507123327 11 67 3.2 4.8 0.00 0.08 0.00 67 1013.8
20260507122327 10 355 1.6 4.8 0.00 0.10 0.00 66 1013.9
20260507121827 10 355 1.6 4.8 0.00 0.10 0.00 66 1013.9
20260507121326 10 47 3.2 8.0 0.00 0.13 0.00 66 1013.8
20260507120827 10 28 0.0 8.0 0.00 0.13 0.00 65 1013.7
20260507120326 10 51 6.4 8.0 0.00 0.13 0.00 66 1013.8
20260507115827 10 5 1.6 6.4 0.00 0.13 0.00 66 1013.7
20260507115327 10 38 0.0 4.8 0.00 0.13 0.00 66 1013.8
20260507114827 10 38 1.6 4.8 0.00 0.13 0.00 66 1013.7
20260507114327 10 38 1.6 3.2 0.00 0.13 0.00 68 1013.7
20260507113826 10 47 1.6 3.2 0.00 0.15 0.00 67 1013.7
20260507113326 10 47 1.6 3.2 0.00 0.15 0.00 66 1013.5
20260507110826 10 47 1.6 4.8 0.00 0.18 0.00 68 1013.2
20260507110326 10 47 0.0 3.2 0.00 0.18 0.00 68 1013.3
20260507105826 10 47 0.0 8.0 0.00 0.20 0.00 66 1013.5
20260507105326 10 47 3.2 8.0 0.00 0.20 0.00 64 1013.3
20260507104826 10 34 3.2 6.4 0.00 0.20 0.00 65 1013.2
20260507104326 10 108 1.6 4.8 0.00 0.20 0.00 65 1013.1
20260507103826 10 35 1.6 4.8 0.00 0.20 0.00 65 1013.0
20260507103326 10 5 3.2 8.0 0.00 0.20 0.00 64 1013.0
20260507102326 10 53 4.8 8.0 0.00 0.20 0.00 65 1012.7
20260507101826 10 35 0.0 8.0 0.00 0.20 0.00 65 1012.7
20260507100326 10 58 3.2 14.5 0.00 0.20 0.00 66 1012.6
20260507095826 10 55 4.8 14.5 0.00 0.20 0.00 66 1012.7
20260507095326 10 43 1.6 6.4 0.00 0.20 0.00 67 1012.7
20260507094826 10 55 6.4 6.4 0.00 0.20 0.00 69 1012.6
20260507093827 10 40 4.8 6.4 0.00 0.20 0.00 69 1012.6
20260507093326 10 40 3.2 8.0 0.00 0.20 0.00 70 1012.5
20260507092826 10 60 3.2 8.0 0.00 0.20 0.00 70 1012.4
20260507092326 11 50 3.2 8.0 0.00 0.20 0.00 73 1012.4
20260507091826 11 12 4.8 11.3 0.00 0.20 0.00 73 1012.4
20260507091326 11 68 4.8 11.3 0.00 0.20 0.00 74 1012.5
20260507090826 11 101 0.0 8.0 0.00 0.20 0.00 77 1012.5
20260507090326 11 53 3.2 6.4 0.00 0.20 0.00 79 1012.5
20260507085826 11 36 0.0 3.2 0.00 0.20 0.00 79 1012.6
20260507085326 11 36 1.6 4.8 0.00 0.20 0.00 79 1012.6
20260507084826 11 36 0.0 4.8 0.00 0.20 0.00 79 1012.6
20260507084326 11 29 1.6 6.4 0.00 0.20 0.00 78 1012.6
20260507083326 11 16 0.0 6.4 0.00 0.20 0.00 78 1012.6
20260507082326 11 40 0.0 4.8 0.00 0.20 0.00 78 1012.3
20260507081826 11 40 1.6 4.8 0.00 0.20 0.00 78 1012.5
20260507081326 11 5 0.0 3.2 0.00 0.20 0.00 78 1012.6
20260507080826 11 337 0.0 8.0 0.00 0.20 0.00 78 1012.5
20260507080326 11 337 0.0 8.0 0.00 0.20 0.00 78 1012.3
20260507075826 11 25 1.6 6.4 0.00 0.20 0.00 77 1012.2
20260507074826 11 42 1.6 4.8 0.00 0.20 0.00 77 1012.0
20260507074326 11 5 1.6 6.4 0.00 0.20 0.00 77 1012.1
20260507073826 11 5 1.6 6.4 0.00 0.20 0.00 77 1011.9
20260507072326 11 290 1.6 8.0 0.00 0.20 0.00 77 1011.8
20260507071825 11 12 3.2 11.3 0.00 0.20 0.00 77 1011.6
20260507071326 11 308 4.8 11.3 0.00 0.20 0.00 76 1011.6
20260507070325 11 5 1.6 9.7 0.00 0.20 0.00 76 1011.7
20260507065326 11 9 1.6 8.0 0.00 0.20 0.00 76 1011.9
20260507064826 11 9 6.4 8.0 0.00 0.20 0.00 76 1011.9
20260507063825 11 51 1.6 12.9 0.00 0.20 0.00 75 1012.0
20260507063325 12 336 4.8 9.7 0.00 0.20 0.00 75 1012.2
20260507062825 12 355 1.6 6.4 0.00 0.20 0.00 75 1012.3
20260507062326 12 9 3.2 6.4 0.00 0.20 0.00 75 1012.3
20260507061826 12 38 0.0 8.0 0.00 0.20 0.00 75 1012.3
20260507061325 12 20 4.8 8.0 0.00 0.20 0.00 75 1012.4
20260507060826 12 259 1.6 9.7 0.00 0.20 0.00 75 1012.4
20260507060356 12 338 1.6 9.7 0.00 0.20 0.00 75 1012.6
20260507055825 12 96 4.8 8.0 0.00 0.20 0.00 75 1012.5
20260507055326 12 12 6.4 17.7 0.00 0.20 0.00 75 1012.5
20260507054826 12 60 3.2 17.7 0.00 0.20 0.00 75 1012.5
20260507054325 12 29 6.4 14.5 0.00 0.20 0.00 75 1012.5
20260507053825 12 35 3.2 14.5 0.00 0.20 0.00 76 1012.4
20260507053325 12 21 3.2 6.4 0.00 0.20 0.00 75 1012.3
20260507052825 12 5 3.2 8.0 0.00 0.20 0.00 75 1012.3
20260507052325 12 11 3.2 8.0 0.00 0.20 0.00 75 1012.2
20260507051825 12 49 1.6 14.5 0.00 0.20 0.00 75 1012.1
20260507051325 12 199 6.4 14.5 0.00 0.20 0.00 75 1011.8
20260507050825 12 348 6.4 14.5 0.00 0.20 0.00 75 1011.7
20260507045825 12 355 3.2 8.0 0.00 0.20 0.00 75 1011.9
20260507045325 12 40 3.2 12.9 0.00 0.20 0.00 75 1011.8
20260507044825 12 55 1.6 12.9 0.00 0.20 0.00 76 1012.0
20260507043825 12 38 3.2 14.5 0.00 0.20 0.00 76 1011.8
20260507043325 12 314 1.6 12.9 0.00 0.20 0.00 76 1011.7
20260507042825 12 284 3.2 12.9 0.00 0.20 0.00 76 1011.8
20260507042325 12 96 4.8 12.9 0.00 0.20 0.00 77 1011.8
20260507041825 12 105 3.2 12.9 0.00 0.20 0.00 78 1011.6
20260507041325 12 315 3.2 12.9 0.00 0.20 0.00 78 1011.6
20260507040825 12 15 8.0 14.5 0.00 0.20 0.00 78 1011.5
20260507040325 12 317 0.0 14.5 0.00 0.20 0.00 79 1011.9
20260507035855 12 42 3.2 22.5 0.00 0.20 0.00 79 1011.8
20260507034825 12 5 6.4 14.5 0.00 0.20 0.20 80 1012.0
20260507034325 13 48 6.4 14.5 0.00 0.20 0.20 80 1012.1
20260507033825 13 330 9.7 14.5 0.00 0.20 0.20 80 1011.8
20260507033325 13 26 4.8 11.3 0.00 0.20 0.20 81 1011.5
20260507032825 13 304 6.4 9.7 0.00 0.20 0.20 81 1011.6
20260507032325 13 340 1.6 11.3 0.00 0.20 0.20 80 1011.7
20260507031825 13 11 6.4 11.3 0.00 0.20 0.20 80 1011.8
20260507031325 13 24 4.8 14.5 0.00 0.20 0.20 80 1012.0
20260507030325 13 34 6.4 16.1 0.00 0.20 0.20 80 1012.0
20260507025825 13 24 6.4 16.1 0.00 0.20 0.20 80 1011.7
20260507025325 13 51 6.4 12.9 0.00 0.20 0.20 79 1011.5
20260507024825 13 38 3.2 8.0 0.00 0.20 0.20 79 1011.9
20260507024325 13 13 4.8 6.4 0.00 0.20 0.20 79 1011.8
20260507023825 13 5 3.2 6.4 0.00 0.20 0.20 79 1011.5
20260507022325 13 18 4.8 12.9 0.00 0.20 0.20 78 1011.4
20260507021825 14 36 4.8 16.1 0.00 0.20 0.20 78 1011.5
20260507021325 14 17 1.6 16.1 0.00 0.20 0.20 78 1011.3
20260507015825 14 121 3.2 8.0 0.00 0.20 0.20 78 1011.1
20260507015324 14 161 3.2 14.5 0.00 0.20 0.20 78 1011.0
20260507014825 14 32 4.8 14.5 0.00 0.20 0.20 77 1010.7
20260507014325 14 41 4.8 9.7 0.00 0.20 0.20 77 1010.6
20260507013325 14 355 4.8 9.7 0.00 0.20 0.20 78 1010.7
20260507012825 14 55 4.8 9.7 0.00 0.20 0.20 78 1010.7
20260507012325 15 5 3.2 12.9 0.00 0.20 0.20 77 1011.0
20260507011325 15 51 6.4 16.1 0.00 0.20 0.20 78 1010.2
20260507010825 15 51 6.4 24.1 0.00 0.20 0.20 77 1010.1
20260507010325 15 38 16.1 24.1 0.00 0.20 0.20 77 1010.1
20260507005825 15 207 4.8 29.0 0.00 0.20 0.20 77 1009.8
20260507005325 15 10 8.0 29.0 0.00 0.20 0.20 78 1009.5
20260507004824 15 355 4.8 24.1 0.00 0.20 0.20 78 1009.8
20260507004325 15 360 24.1 24.1 0.00 0.20 0.20 77 1010.3
20260507003324 15 37 8.0 22.5 0.00 0.20 0.20 78 1010.7
20260507002824 16 318 14.5 22.5 0.00 0.20 0.20 78 1010.4
20260507002324 16 307 12.9 27.4 0.00 0.20 0.20 78 1010.4
20260507001825 16 329 16.1 27.4 0.00 0.20 0.20 78 1010.3
20260507001325 16 28 6.4 25.7 0.00 0.20 0.20 78 1010.2
20260507000825 16 17 12.9 17.7 0.00 0.20 0.20 78 1010.3
20260507000325 16 355 6.4 17.7 0.00 0.20 0.20 78 1010.5
20260506235824 16 131 6.4 17.7 0.00 0.20 0.20 78 1010.5
20260506235324 16 360 3.2 17.7 0.00 0.20 0.20 78 1010.5
20260506234324 16 355 8.0 29.0 0.00 0.20 0.20 78 1010.2
20260506233824 16 161 3.2 29.0 0.00 0.20 0.20 78 1009.8
20260506233324 16 238 6.4 22.5 0.00 0.20 0.20 78 1009.4
20260506232824 16 336 14.5 27.4 0.00 0.20 0.20 80 1009.3
20260506232324 16 69 4.8 27.4 0.00 0.20 0.20 79 1009.4
20260506231824 17 51 6.4 25.7 0.00 0.20 0.20 79 1009.6
20260506231324 17 295 8.0 24.1 0.00 0.20 0.20 80 1009.2
20260506230824 17 29 4.8 24.1 0.00 0.20 0.20 80 1009.1
20260506230324 17 360 14.5 24.1 0.00 0.20 0.20 80 1009.3
20260506225824 17 46 6.4 24.1 0.00 0.20 0.20 80 1009.6
20260506225324 17 18 4.8 22.5 0.00 0.20 0.20 79 1009.3
20260506224854 17 38 4.8 17.7 0.00 0.20 0.20 80 1009.2
20260506224324 17 360 8.0 17.7 0.00 0.20 0.20 79 1009.3
20260506223824 17 22 8.0 16.1 0.00 0.20 0.20 79 1009.5
20260506222324 18 15 6.4 19.3 0.00 0.20 0.20 78 1009.6
20260506221824 18 30 4.8 17.7 0.00 0.20 0.20 78 1009.5
20260506220824 18 342 4.8 20.9 0.00 0.20 0.20 79 1009.3
20260506220324 18 314 16.1 17.7 0.00 0.20 0.20 79 1009.3
20260506215824 18 47 8.0 17.7 0.00 0.20 0.20 78 1008.9
20260506215354 19 215 9.7 16.1 0.00 0.20 0.20 78 1008.8
20260506214824 19 74 8.0 14.5 0.00 0.20 0.20 77 1008.7
20260506213824 20 37 9.7 16.1 0.00 0.20 0.20 77 1008.7
20260506213324 20 54 3.2 12.9 0.00 0.20 0.20 79 1008.6
20260506212824 20 21 3.2 16.1 0.00 0.20 0.20 79 1008.7
20260506212324 20 9 6.4 16.1 0.00 0.20 0.20 77 1008.7
20260506211824 20 355 8.0 14.5 0.00 0.20 0.20 75 1008.4
20260506211324 21 327 1.6 12.9 0.00 0.20 0.20 75 1008.6
20260506210824 21 66 3.2 6.4 0.00 0.20 0.20 75 1008.6
20260506210324 21 29 1.6 6.4 0.00 0.20 0.20 75 1008.4
20260506205824 21 15 6.4 6.4 0.00 0.20 0.20 74 1008.3
20260506205324 21 28 3.2 9.7 0.00 0.20 0.20 74 1008.2
20260506204824 21 32 3.2 9.7 0.00 0.20 0.20 73 1008.1
20260506204324 21 22 4.8 8.0 0.00 0.20 0.20 74 1008.0
20260506203824 21 55 0.0 8.0 0.00 0.20 0.20 74 1008.1
20260506203323 21 298 4.8 8.0 0.00 0.20 0.20 76 1008.0
20260506202824 20 32 3.2 6.4 0.00 0.20 0.20 77 1007.8
20260506201824 20 44 0.0 4.8 0.00 0.20 0.20 77 1007.9
20260506201324 20 45 3.2 4.8 0.00 0.20 0.20 78 1008.1
20260506200823 20 40 1.6 4.8 0.00 0.20 0.20 79 1007.9
20260506200323 20 40 3.2 4.8 0.00 0.20 0.20 79 1008.0
20260506195823 19 39 0.0 1.6 0.00 0.20 0.20 79 1007.9
20260506195323 19 39 0.0 1.6 0.00 0.20 0.20 80 1007.8
20260506194824 19 39 0.0 3.2 0.00 0.20 0.20 79 1007.8
20260506193823 19 39 1.6 3.2 0.00 0.20 0.20 79 1007.9
20260506193323 19 39 0.0 3.2 0.00 0.20 0.20 80 1007.8
20260506192823 19 39 1.6 3.2 0.00 0.20 0.20 79 1007.9
20260506192323 19 38 0.0 6.4 0.00 0.20 0.20 79 1007.9
20260506191823 19 38 1.6 6.4 0.00 0.20 0.20 79 1007.9
20260506190823 20 44 1.6 6.4 0.00 0.20 0.20 79 1008.2
20260506190323 20 17 1.6 4.8 0.00 0.20 0.20 78 1008.3
20260506185823 20 330 1.6 4.8 0.00 0.20 0.20 78 1008.3